| time (UTC) | temp F | wind direction | speed MPH | gust MPH | rain 1hr in | rain 24hr in | rain mn in | humidity % | barometer mb |
| 20260508152746 | 60 | 170 | 2.0 | 4.0 | 0.00 | 0.00 | 0.00 | 46 | |
| 20260508151536 | 60 | 244 | 3.0 | 6.0 | 0.00 | 0.00 | 0.00 | 45 | |
| 20260508150945 | 60 | 168 | 5.0 | 6.0 | 0.00 | 0.00 | 0.00 | 44 | |
| 20260508145746 | 59 | 164 | 3.0 | 3.0 | 0.00 | 0.00 | 0.00 | 41 | |
| 20260508145148 | 58 | 167 | 2.0 | 3.0 | 0.00 | 0.00 | 0.00 | 47 | |
| 20260508143942 | 58 | 243 | 1.0 | 3.0 | 0.00 | 0.00 | 0.00 | 51 | |
| 20260508142727 | 56 | 253 | 0.0 | 1.0 | 0.00 | 0.00 | 0.00 | 71 | |
| 20260508142148 | 55 | 253 | 1.0 | 1.0 | 0.00 | 0.00 | 0.00 | 72 | |
| 20260508141518 | 54 | 254 | 0.0 | 1.0 | 0.00 | 0.00 | 0.00 | 76 | |
| 20260508140935 | 53 | 253 | 0.0 | 0.0 | 0.00 | 0.00 | 0.00 | 81 | |
| 20260508135748 | 51 | 253 | 0.0 | 1.0 | 0.00 | 0.00 | 0.00 | 85 | |
| 20260508135145 | 50 | 202 | 0.0 | 1.0 | 0.00 | 0.00 | 0.00 | 84 | |
| 20260508134522 | 49 | 177 | 0.0 | 2.0 | 0.00 | 0.00 | 0.00 | 84 | |
| 20260508133915 | 48 | 181 | 0.0 | 1.0 | 0.00 | 0.00 | 0.00 | 86 | |
| 20260508133312 | 47 | 210 | 1.0 | 2.0 | 0.00 | 0.00 | 0.00 | 88 | |
| 20260508132726 | 46 | 246 | 0.0 | 0.0 | 0.00 | 0.00 | 0.00 | 91 | |
| 20260508132122 | 45 | 229 | 0.0 | 2.0 | 0.00 | 0.00 | 0.00 | 92 | |
| 20260508130308 | 43 | 198 | 2.0 | 2.0 | 0.00 | 0.00 | 0.00 | 97 | |
| 20260508125126 | 42 | 212 | 1.0 | 2.0 | 0.00 | 0.00 | 0.00 | 98 | |
| 20260508123936 | 41 | 273 | 0.0 | 1.0 | 0.00 | 0.00 | 0.00 | 98 | |
| 20260508123350 | 41 | 275 | 0.0 | 1.0 | 0.00 | 0.00 | 0.00 | 99 | |
| 20260508122731 | 40 | 274 | 0.0 | 1.0 | 0.00 | 0.00 | 0.00 | 99 | |
| 20260508122120 | 40 | 313 | 0.0 | 1.0 | 0.00 | 0.00 | 0.00 | 99 | |
| 20260508121537 | 40 | 331 | 0.0 | 0.0 | 0.00 | 0.00 | 0.00 | 99 | |
| 20260508120920 | 40 | 329 | 0.0 | 1.0 | 0.00 | 0.00 | 0.00 | 99 | |
| 20260508115710 | 39 | 307 | 0.0 | 1.0 | 0.00 | 0.00 | 0.00 | 99 | |
| 20260508115148 | 39 | 329 | 0.0 | 1.0 | 0.00 | 0.00 | 0.00 | 99 | |
| 20260508114519 | 39 | 315 | 0.0 | 0.0 | 0.00 | 0.00 | 0.00 | 99 | |
| 20260508113930 | 39 | 315 | 1.0 | 1.0 | 0.00 | 0.00 | 0.00 | 99 | |
| 20260508113316 | 39 | 297 | 0.0 | 0.0 | 0.00 | 0.00 | 0.00 | 99 | |
| 20260508112719 | 38 | 322 | 0.0 | 1.0 | 0.00 | 0.00 | 0.00 | 99 | |
| 20260508112143 | 38 | 335 | 0.0 | 1.0 | 0.00 | 0.00 | 0.00 | 99 | |
| 20260508111542 | 38 | 325 | 0.0 | 1.0 | 0.00 | 0.00 | 0.00 | 99 | |
| 20260508110922 | 38 | 327 | 0.0 | 1.0 | 0.00 | 0.00 | 0.00 | 99 | |
| 20260508110326 | 38 | 325 | 0.0 | 1.0 | 0.00 | 0.00 | 0.00 | 99 | |
| 20260508105142 | 38 | 313 | 0.0 | 1.0 | 0.00 | 0.00 | 0.00 | 99 | |
| 20260508103936 | 38 | 294 | 1.0 | 2.0 | 0.00 | 0.00 | 0.00 | 99 | |
| 20260508103338 | 38 | 313 | 0.0 | 1.0 | 0.00 | 0.00 | 0.00 | 99 | |
| 20260508102715 | 38 | 331 | 0.0 | 0.0 | 0.00 | 0.00 | 0.00 | 99 | |
| 20260508102115 | 38 | 330 | 0.0 | 1.0 | 0.00 | 0.00 | 0.00 | 99 | |
| 20260508101512 | 39 | 331 | 0.0 | 0.0 | 0.00 | 0.00 | 0.00 | 99 | |
| 20260508100938 | 38 | 331 | 0.0 | 1.0 | 0.00 | 0.00 | 0.00 | 99 | |
| 20260508100331 | 38 | 335 | 0.0 | 1.0 | 0.00 | 0.00 | 0.00 | 99 | |
| 20260508095748 | 39 | 329 | 0.0 | 0.0 | 0.00 | 0.00 | 0.00 | 99 | |
| 20260508095130 | 39 | 334 | 0.0 | 0.0 | 0.00 | 0.00 | 0.00 | 99 | |
| 20260508094522 | 39 | 330 | 0.0 | 0.0 | 0.00 | 0.00 | 0.00 | 99 | |
| 20260508093943 | 38 | 335 | 0.0 | 0.0 | 0.00 | 0.00 | 0.00 | 99 | |
| 20260508092722 | 39 | 316 | 1.0 | 2.0 | 0.00 | 0.00 | 0.00 | 99 | |
| 20260508092142 | 39 | 310 | 1.0 | 1.0 | 0.00 | 0.00 | 0.00 | 99 | |
| 20260508091528 | 39 | 310 | 1.0 | 1.0 | 0.00 | 0.00 | 0.00 | 99 | |
| 20260508090932 | 39 | 310 | 0.0 | 0.0 | 0.00 | 0.00 | 0.00 | 99 | |
| 20260508085139 | 39 | 322 | 0.0 | 1.0 | 0.00 | 0.00 | 0.00 | 99 | |
| 20260508084547 | 39 | 331 | 0.0 | 1.0 | 0.00 | 0.00 | 0.00 | 99 | |
| 20260508083912 | 39 | 316 | 0.0 | 1.0 | 0.00 | 0.00 | 0.00 | 99 | |
| 20260508083313 | 39 | 325 | 0.0 | 1.0 | 0.00 | 0.00 | 0.00 | 99 | |
| 20260508082735 | 39 | 322 | 0.0 | 0.0 | 0.00 | 0.00 | 0.00 | 99 | |
| 20260508082150 | 39 | 322 | 0.0 | 0.0 | 0.00 | 0.00 | 0.00 | 99 | |
| 20260508081537 | 39 | 313 | 0.0 | 2.0 | 0.00 | 0.00 | 0.00 | 99 | |
| 20260508080328 | 40 | 331 | 0.0 | 1.0 | 0.00 | 0.00 | 0.00 | 99 | |
| 20260508075731 | 40 | 326 | 0.0 | 0.0 | 0.00 | 0.00 | 0.00 | 99 | |
| 20260508075120 | 40 | 310 | 1.0 | 2.0 | 0.00 | 0.00 | 0.00 | 99 | |
| 20260508074529 | 40 | 303 | 1.0 | 1.0 | 0.00 | 0.00 | 0.00 | 99 | |
| 20260508073327 | 40 | 324 | 1.0 | 1.0 | 0.00 | 0.00 | 0.00 | 99 | |
| 20260508072733 | 40 | 325 | 0.0 | 0.0 | 0.00 | 0.00 | 0.00 | 99 | |
| 20260508072115 | 40 | 325 | 0.0 | 1.0 | 0.00 | 0.00 | 0.00 | 99 | |
| 20260508071537 | 40 | 318 | 1.0 | 1.0 | 0.00 | 0.00 | 0.00 | 99 | |
| 20260508070950 | 40 | 324 | 1.0 | 2.0 | 0.00 | 0.00 | 0.00 | 99 | |
| 20260508070338 | 41 | 329 | 0.0 | 0.0 | 0.00 | 0.00 | 0.00 | 99 | |
| 20260508065738 | 41 | 318 | 0.0 | 0.0 | 0.00 | 0.00 | 0.00 | 99 | |
| 20260508065133 | 41 | 318 | 0.0 | 3.0 | 0.00 | 0.00 | 0.00 | 99 | |
| 20260508064520 | 41 | 319 | 0.0 | 1.0 | 0.00 | 0.00 | 0.00 | 99 | |
| 20260508063925 | 41 | 310 | 0.0 | 2.0 | 0.00 | 0.00 | 0.00 | 99 | |
| 20260508063318 | 41 | 304 | 1.0 | 2.0 | 0.00 | 0.00 | 0.00 | 99 | |
| 20260508062742 | 41 | 317 | 0.0 | 2.0 | 0.00 | 0.00 | 0.00 | 99 | |
| 20260508062146 | 41 | 315 | 0.0 | 2.0 | 0.00 | 0.00 | 0.00 | 99 | |
| 20260508061530 | 41 | 304 | 2.0 | 2.0 | 0.00 | 0.00 | 0.00 | 99 | |
| 20260508060909 | 41 | 328 | 0.0 | 1.0 | 0.00 | 0.00 | 0.00 | 99 | |
| 20260508060341 | 41 | 328 | 0.0 | 1.0 | 0.00 | 0.00 | 0.00 | 99 | |
| 20260508055751 | 42 | 327 | 0.0 | 1.0 | 0.00 | 0.00 | 0.00 | 99 | |
| 20260508055141 | 42 | 320 | 0.0 | 1.0 | 0.00 | 0.00 | 0.00 | 99 | |
| 20260508054544 | 42 | 330 | 0.0 | 0.0 | 0.00 | 0.00 | 0.00 | 99 | |
| 20260508052737 | 42 | 329 | 0.0 | 1.0 | 0.00 | 0.00 | 0.00 | 99 | |
| 20260508052132 | 42 | 328 | 0.0 | 0.0 | 0.00 | 0.00 | 0.00 | 99 | |
| 20260508051526 | 42 | 328 | 0.0 | 0.0 | 0.00 | 0.00 | 0.00 | 99 | |
| 20260508050945 | 42 | 331 | 0.0 | 0.0 | 0.00 | 0.00 | 0.00 | 99 | |
| 20260508050309 | 42 | 335 | 0.0 | 0.0 | 0.00 | 0.00 | 0.00 | 99 | |
| 20260508045724 | 42 | 348 | 0.0 | 0.0 | 0.00 | 0.00 | 0.00 | 99 | |
| 20260508045128 | 42 | 348 | 0.0 | 0.0 | 0.00 | 0.00 | 0.00 | 99 | |
| 20260508044542 | 42 | 348 | 0.0 | 0.0 | 0.00 | 0.00 | 0.00 | 99 | |
| 20260508043936 | 41 | 348 | 0.0 | 0.0 | 0.00 | 0.00 | 0.00 | 99 | |
| 20260508043347 | 41 | 348 | 0.0 | 0.0 | 0.00 | 0.00 | 0.00 | 99 | |
| 20260508042723 | 41 | 348 | 0.0 | 0.0 | 0.00 | 0.00 | 0.00 | 99 | |
| 20260508042141 | 41 | 348 | 0.0 | 0.0 | 0.00 | 0.00 | 0.00 | 99 | |
| 20260508041532 | 41 | 348 | 0.0 | 0.0 | 0.00 | 0.00 | 0.00 | 99 | |
| 20260508040318 | 41 | 348 | 0.0 | 0.0 | 0.00 | 0.00 | 0.00 | 99 | |
| 20260508035120 | 42 | 348 | 0.0 | 0.0 | 0.00 | 0.00 | 0.01 | 99 | |
| 20260508034526 | 42 | 348 | 0.0 | 0.0 | 0.00 | 0.00 | 0.01 | 99 | |
| 20260508033916 | 42 | 348 | 0.0 | 0.0 | 0.00 | 0.00 | 0.01 | 99 | |
| 20260508033321 | 42 | 348 | 0.0 | 0.0 | 0.00 | 0.00 | 0.01 | 99 | |
| 20260508032734 | 42 | 348 | 0.0 | 0.0 | 0.00 | 0.00 | 0.01 | 99 | |
| 20260508032146 | 42 | 348 | 0.0 | 0.0 | 0.00 | 0.00 | 0.01 | 99 | |
| 20260508031526 | 43 | 348 | 0.0 | 0.0 | 0.00 | 0.00 | 0.01 | 99 | |
| 20260508030931 | 43 | 348 | 0.0 | 0.0 | 0.00 | 0.00 | 0.01 | 99 | |
| 20260508030311 | 43 | 348 | 0.0 | 1.0 | 0.00 | 0.00 | 0.01 | 99 | |
| 20260508025719 | 43 | 348 | 0.0 | 0.0 | 0.00 | 0.00 | 0.01 | 99 | |
| 20260508025114 | 44 | 348 | 0.0 | 1.0 | 0.00 | 0.00 | 0.01 | 99 | |
| 20260508024525 | 44 | 348 | 0.0 | 0.0 | 0.00 | 0.00 | 0.01 | 99 | |
| 20260508023946 | 44 | 348 | 0.0 | 0.0 | 0.00 | 0.00 | 0.01 | 99 | |
| 20260508023341 | 44 | 348 | 0.0 | 0.0 | 0.00 | 0.00 | 0.01 | 99 | |
| 20260508022723 | 44 | 348 | 0.0 | 0.0 | 0.00 | 0.00 | 0.01 | 99 | |
| 20260508021515 | 45 | 348 | 0.0 | 1.0 | 0.00 | 0.00 | 0.01 | 99 | |
| 20260508020945 | 45 | 348 | 0.0 | 0.0 | 0.00 | 0.00 | 0.01 | 99 | |
| 20260508020349 | 45 | 348 | 0.0 | 0.0 | 0.00 | 0.00 | 0.01 | 99 | |
| 20260508015738 | 45 | 348 | 0.0 | 0.0 | 0.00 | 0.00 | 0.01 | 99 | |
| 20260508015145 | 46 | 348 | 0.0 | 0.0 | 0.00 | 0.00 | 0.01 | 99 | |
| 20260508014517 | 46 | 348 | 0.0 | 0.0 | 0.00 | 0.00 | 0.01 | 99 | |
| 20260508012725 | 47 | 348 | 0.0 | 0.0 | 0.00 | 0.00 | 0.01 | 99 | |
| 20260508011528 | 47 | 348 | 0.0 | 0.0 | 0.00 | 0.00 | 0.01 | 99 | |
| 20260508010935 | 47 | 348 | 0.0 | 0.0 | 0.00 | 0.00 | 0.01 | 98 | |
| 20260508010349 | 48 | 348 | 0.0 | 0.0 | 0.00 | 0.00 | 0.01 | 98 | |
| 20260508005736 | 48 | 348 | 0.0 | 0.0 | 0.00 | 0.00 | 0.01 | 98 | |
| 20260508003908 | 49 | 347 | 0.0 | 0.0 | 0.00 | 0.00 | 0.01 | 96 | |
| 20260508003340 | 49 | 347 | 0.0 | 0.0 | 0.00 | 0.00 | 0.01 | 96 | |
| 20260508002734 | 49 | 348 | 0.0 | 0.0 | 0.00 | 0.00 | 0.01 | 95 | |
| 20260508002110 | 50 | 348 | 0.0 | 0.0 | 0.00 | 0.00 | 0.01 | 95 | |
| 20260508001532 | 50 | 348 | 0.0 | 0.0 | 0.00 | 0.00 | 0.01 | 94 | |
| 20260508000949 | 51 | 347 | 1.0 | 1.0 | 0.00 | 0.00 | 0.01 | 93 | |
| 20260508000335 | 51 | 286 | 0.0 | 0.0 | 0.00 | 0.00 | 0.01 | 92 | |
| 20260507235747 | 52 | 286 | 0.0 | 0.0 | 0.00 | 0.00 | 0.01 | 91 | |
| 20260507235119 | 52 | 286 | 0.0 | 1.0 | 0.00 | 0.00 | 0.01 | 90 | |
| 20260507234551 | 52 | 286 | 0.0 | 0.0 | 0.00 | 0.00 | 0.01 | 90 | |
| 20260507233938 | 53 | 284 | 1.0 | 1.0 | 0.00 | 0.00 | 0.01 | 88 | |
| 20260507233347 | 53 | 284 | 0.0 | 0.0 | 0.00 | 0.00 | 0.01 | 87 | |
| 20260507231535 | 56 | 287 | 0.0 | 1.0 | 0.00 | 0.00 | 0.01 | 78 | |
| 20260507225744 | 56 | 277 | 0.0 | 0.0 | 0.00 | 0.00 | 0.01 | 82 | |
| 20260507225120 | 57 | 276 | 0.0 | 1.0 | 0.00 | 0.00 | 0.01 | 80 | |
| 20260507224527 | 58 | 272 | 0.0 | 1.0 | 0.00 | 0.00 | 0.01 | 76 | |
| 20260507223918 | 60 | 273 | 1.0 | 1.0 | 0.00 | 0.00 | 0.01 | 75 | |
| 20260507223338 | 61 | 284 | 1.0 | 2.0 | 0.00 | 0.00 | 0.01 | 71 | |
| 20260507222719 | 61 | 156 | 1.0 | 3.0 | 0.00 | 0.00 | 0.01 | 61 | |
| 20260507221516 | 58 | 159 | 2.0 | 2.0 | 0.00 | 0.00 | 0.01 | 68 | |
| 20260507220312 | 58 | 109 | 1.0 | 2.0 | 0.00 | 0.00 | 0.01 | 70 | |
| 20260507215738 | 59 | 154 | 0.0 | 1.0 | 0.00 | 0.00 | 0.01 | 71 | |
| 20260507215144 | 58 | 155 | 0.0 | 1.0 | 0.00 | 0.00 | 0.01 | 73 | |
| 20260507213944 | 60 | 176 | 1.0 | 3.0 | 0.00 | 0.00 | 0.01 | 64 | |
| 20260507212737 | 59 | 35 | 0.0 | 1.0 | 0.00 | 0.00 | 0.01 | 68 | |
| 20260507211532 | 60 | 34 | 0.0 | 0.0 | 0.00 | 0.00 | 0.01 | 67 | |
| 20260507210928 | 61 | 33 | 0.0 | 1.0 | 0.00 | 0.00 | 0.01 | 69 | |
| 20260507210344 | 59 | 31 | 0.0 | 1.0 | 0.00 | 0.00 | 0.01 | 66 | |
| 20260507204547 | 59 | 26 | 0.0 | 1.0 | 0.00 | 0.00 | 0.01 | 69 | |
| 20260507202737 | 58 | 34 | 0.0 | 1.0 | 0.00 | 0.00 | 0.01 | 73 | |
| 20260507202152 | 58 | 36 | 1.0 | 2.0 | 0.00 | 0.00 | 0.01 | 66 | |
| 20260507201538 | 58 | 96 | 1.0 | 2.0 | 0.00 | 0.00 | 0.01 | 70 | |
| 20260507200938 | 57 | 339 | 0.0 | 1.0 | 0.00 | 0.00 | 0.01 | 68 | |
| 20260507195752 | 57 | 43 | 1.0 | 2.0 | 0.00 | 0.00 | 0.01 | 66 | |
| 20260507195151 | 57 | 261 | 1.0 | 2.0 | 0.00 | 0.00 | 0.01 | 67 | |
| 20260507194514 | 58 | 142 | 2.0 | 2.0 | 0.00 | 0.00 | 0.01 | 66 | |
| 20260507193951 | 58 | 167 | 1.0 | 3.0 | 0.00 | 0.00 | 0.01 | 70 | |
| 20260507192732 | 59 | 197 | 2.0 | 3.0 | 0.00 | 0.00 | 0.01 | 66 | |
| 20260507192146 | 59 | 152 | 1.0 | 2.0 | 0.00 | 0.00 | 0.01 | 64 | |
| 20260507191535 | 56 | 169 | 1.0 | 3.0 | 0.00 | 0.00 | 0.01 | 67 | |
| 20260507190936 | 56 | 103 | 1.0 | 2.0 | 0.00 | 0.00 | 0.01 | 69 | |
| 20260507185724 | 56 | 161 | 2.0 | 4.0 | 0.00 | 0.00 | 0.01 | 72 | |
| 20260507185150 | 56 | 192 | 0.0 | 2.0 | 0.00 | 0.00 | 0.01 | 68 | |
| 20260507184549 | 56 | 177 | 1.0 | 4.0 | 0.00 | 0.00 | 0.01 | 68 | |
| 20260507183952 | 56 | 161 | 3.0 | 4.0 | 0.00 | 0.00 | 0.01 | 67 | |
| 20260507183308 | 57 | 148 | 2.0 | 6.0 | 0.00 | 0.00 | 0.01 | 68 | |
| 20260507182714 | 55 | 213 | 0.0 | 2.0 | 0.00 | 0.00 | 0.01 | 71 | |
| 20260507182150 | 55 | 149 | 0.0 | 2.0 | 0.00 | 0.00 | 0.01 | 75 | |
| 20260507181510 | 55 | 137 | 0.0 | 1.0 | 0.00 | 0.00 | 0.01 | 73 | |
| 20260507180928 | 55 | 150 | 3.0 | 6.0 | 0.00 | 0.00 | 0.01 | 73 | |
| 20260507180324 | 56 | 177 | 0.0 | 0.0 | 0.00 | 0.00 | 0.01 | 70 | |
| 20260507174520 | 56 | 167 | 2.0 | 6.0 | 0.00 | 0.00 | 0.01 | 71 | |
| 20260507173945 | 56 | 32 | 1.0 | 2.0 | 0.00 | 0.00 | 0.01 | 70 | |
| 20260507172732 | 56 | 170 | 2.0 | 3.0 | 0.00 | 0.00 | 0.01 | 70 | |
| 20260507172129 | 56 | 141 | 0.0 | 1.0 | 0.00 | 0.00 | 0.01 | 71 | |
| 20260507170911 | 56 | 172 | 1.0 | 2.0 | 0.00 | 0.00 | 0.01 | 71 | |
| 20260507170321 | 56 | 164 | 2.0 | 6.0 | 0.00 | 0.00 | 0.01 | 69 | |
| 20260507165750 | 56 | 150 | 0.0 | 2.0 | 0.00 | 0.00 | 0.01 | 71 | |
| 20260507165135 | 55 | 194 | 0.0 | 1.0 | 0.00 | 0.00 | 0.01 | 71 | |
| 20260507163923 | 54 | 38 | 2.0 | 4.0 | 0.00 | 0.00 | 0.01 | 70 | |
| 20260507162722 | 55 | 30 | 1.0 | 2.0 | 0.00 | 0.00 | 0.01 | 71 | |
| 20260507162152 | 56 | 352 | 0.0 | 1.0 | 0.00 | 0.00 | 0.01 | 74 | |
| 20260507161555 | 55 | 41 | 0.0 | 1.0 | 0.00 | 0.00 | 0.01 | 77 | |
| 20260507160923 | 54 | 59 | 1.0 | 2.0 | 0.00 | 0.00 | 0.01 | 75 | |
| 20260507160346 | 54 | 60 | 1.0 | 3.0 | 0.00 | 0.00 | 0.01 | 72 | |
| 20260507155731 | 55 | 33 | 0.0 | 2.0 | 0.00 | 0.00 | 0.01 | 74 | |
| 20260507155123 | 55 | 46 | 1.0 | 2.0 | 0.00 | 0.00 | 0.01 | 75 | |
| 20260507154519 | 54 | 305 | 1.0 | 3.0 | 0.00 | 0.00 | 0.01 | 76 | |
| 20260507153911 | 53 | 35 | 1.0 | 2.0 | 0.00 | 0.00 | 0.01 | 78 | |
| 20260507153316 | 53 | 35 | 2.0 | 2.0 | 0.00 | 0.00 | 0.01 | 79 |